Regional Weather Roundup
Issued by NWS

Home | Current Version | Previous Version | Text Only | Print | Product List | Glossary Off
Versions: 1 2 3 4 5 6 7 8 9 10 11 12 13 14 15 16 17 18 19 20 21 22 23 24 25 26 27 28 29 30 31 32 33 34 35 36 37 38 39 40 41 42 43 44 45 46 47 48 49 50

499
ASUS43 KBIS 170610
RWRND

NORTH DAKOTA REGIONAL WEATHER ROUNDUP
NATIONAL WEATHER SERVICE BISMARCK ND
1200 AM CST SUN DEC 17 2017

NOTE: "FAIR" INDICATES FEW OR NO CLOUDS BELOW 12,000 FEET WITH NO
SIGNIFICANT WEATHER AND/OR OBSTRUCTIONS TO VISIBILITY.


NDZ001>003-009>011-017-170700-
NORTHWEST NORTH DAKOTA

CITY           SKY/WX    TMP DP  RH WIND       PRES   REMARKS
WILLISTON      CLEAR     21  17  84 SW9       30.05R WCI  11
6HR MIN TEMP:  19; 6HR MAX TEMP:  27;

MINOT          CLEAR     26  19  74 SW9       30.01R WCI  17
MINOT AFB      CLEAR     22  17  81 W10       30.00R WCI  12
$$

NDZ018>021-031>035-040>046-170700-
SOUTHWEST NORTH DAKOTA

CITY           SKY/WX    TMP DP  RH WIND       PRES   REMARKS
BISMARCK       PTCLDY    27  24  89 SW5       30.08R
6HR MIN TEMP:  26; 6HR MAX TEMP:  33;

DICKINSON      CLOUDY    24  18  77 W8        30.03S WCI  15
GARRISON         N/A     26  21  81 W9        30.03S WCI  17
6HR MIN TEMP:  25; 6HR MAX TEMP:  31;

HETTINGER ARPT CLOUDY    19  16  88 CALM      30.07F
$$

NDZ004>008-012>016-024-026-027-054-170700-
NORTHEAST NORTH DAKOTA

CITY           SKY/WX    TMP DP  RH WIND       PRES   REMARKS
GRAND FORKS    CLOUDY    15  13  91 S8        30.05R WCI   4
GRND FRKS AFB  CLOUDY    20  18  93 SW8       30.04R WCI  10
DEVILS LAKE    PTCLDY    22  19  89 SW9       30.02S WCI  12
$$

NDZ022-023-025-028>030-036>039-047>053-170700-
SOUTHEAST NORTH DAKOTA

CITY           SKY/WX    TMP DP  RH WIND       PRES   REMARKS
FARGO          PTCLDY    26  25  96 S7        30.09R WCI  18
6HR MIN TEMP:  20; 6HR MAX TEMP:  27;

JAMESTOWN      CLOUDY    28  26  92 SW6       30.05S
$$





USA.gov is the U.S. government's official web portal to all federal, state and local government web resources and services.